Date String (YYYY-MM-DD hh:mm:ss) UTC,Instrument flags,Ambient pressure (hPa),Sample flow (lpm),Bypass flow (lpm),Sample temperature (°C),Ambient temperature (°C),ASC tube jacket temperature (°C),LED temperature (°C),Box temperature (°C),Sample RH (%),Span deviation,Mass concentration (μg/m³),Mass concentration (μg/m³),Mass concentration (μg/m³)
DateTimeUTC,F1_M11,P_M11,Q1_M11,Q2_M11,T1_M11,T2_M11,T3_M11,T4_M11,T5_M11,U1_M11,ZSPAN_M11,X0_M11,X2_M11,X1_M11
2023-05-20 18:00:00,,0836.3,5.00,0.00,29.6,28.2,00.0,37.9,31.2,27.3,0002.9,0082.96,0061.51,0059.00
2023-05-20 18:01:00,,0836.3,5.01,0.00,29.6,28.2,00.0,37.9,31.2,27.4,0002.8,0082.38,0061.29,0058.71
2023-05-20 18:02:00,,0836.3,5.00,0.00,29.6,28.2,00.0,37.9,31.3,27.2,0002.9,0081.76,0061.05,0058.46
2023-05-20 18:03:00,,0836.3,4.99,0.00,29.7,28.3,00.0,38.0,31.3,27.8,0003.0,0081.33,0060.73,0058.18
2023-05-20 18:04:00,,0836.3,5.01,0.00,29.7,28.3,00.0,38.0,31.3,26.9,0003.0,0080.10,0060.23,0057.79
2023-05-20 18:05:00,,0836.3,5.01,0.00,29.7,28.4,00.0,38.0,31.3,27.6,0003.0,0079.76,0060.07,0057.61
2023-05-20 18:06:00,,0836.3,4.99,0.00,29.7,28.4,00.0,38.0,31.3,27.8,0003.0,0079.69,0059.98,0057.49
2023-05-20 18:07:00,,0836.4,5.00,0.00,29.7,28.5,00.0,38.0,31.4,26.9,0003.1,0079.26,0059.64,0057.24
2023-05-20 18:08:00,,0836.4,5.02,0.00,29.7,28.5,00.0,38.0,31.4,27.0,0003.1,0078.75,0059.31,0056.91
2023-05-20 18:09:00,,0836.3,4.99,0.00,29.8,28.5,00.0,38.0,31.4,28.1,0003.1,0078.05,0059.27,0056.90
2023-05-20 18:10:00,,0836.3,4.99,0.00,29.8,28.5,00.0,38.1,31.4,27.9,0003.1,0078.17,0059.30,0056.95
2023-05-20 18:11:00,,0836.3,5.01,0.00,29.8,28.5,00.0,38.1,31.4,27.3,0003.0,0077.83,0059.36,0057.02
2023-05-20 18:12:00,,0836.3,5.01,0.00,29.8,28.5,00.0,38.1,31.4,27.5,0003.0,0077.90,0059.50,0057.19
2023-05-20 18:13:00,,0836.3,4.99,0.00,29.8,28.5,00.0,38.1,31.4,27.8,0003.0,0077.95,0059.53,0057.21
2023-05-20 18:14:00,,0836.3,5.01,0.00,29.8,28.5,00.0,38.1,31.4,27.8,0003.0,0078.13,0059.58,0057.22
2023-05-20 18:15:00,,0836.4,5.01,0.00,29.8,28.5,00.0,38.1,31.4,26.7,0003.0,0078.30,0059.65,0057.25
2023-05-20 18:16:00,,0836.3,5.01,0.00,29.8,28.5,00.0,38.1,31.4,26.6,0003.0,0079.29,0059.70,0057.28
2023-05-20 18:17:00,,0836.4,4.98,0.00,29.8,27.9,00.0,38.1,31.4,26.3,0002.9,0079.41,0059.70,0057.30
2023-05-20 18:18:00,,0836.4,5.00,0.00,29.8,26.4,00.0,38.0,31.2,26.4,0002.9,0079.49,0059.74,0057.31
2023-05-20 18:19:00,,0836.3,5.00,0.00,29.7,25.8,00.0,37.9,31.1,26.7,0003.0,0079.84,0059.94,0057.46
2023-05-20 18:20:00,,0836.3,5.01,0.00,29.7,25.9,00.0,37.9,30.9,27.0,0003.0,0080.21,0059.98,0057.54
2023-05-20 18:21:00,,0836.3,5.00,0.00,29.6,26.2,00.0,37.9,30.9,27.6,0003.0,0080.02,0059.90,0057.47
2023-05-20 18:22:00,,0836.2,5.00,0.00,29.5,26.5,00.0,37.9,30.9,27.8,0003.1,0079.97,0059.89,0057.46
2023-05-20 18:23:00,,0836.2,5.00,0.00,29.5,26.8,00.0,37.9,31.0,27.8,0003.1,0079.77,0059.81,0057.38
2023-05-20 18:24:00,,0836.3,4.99,0.00,29.5,27.0,00.0,37.9,31.0,28.0,0003.1,0079.76,0059.79,0057.37
2023-05-20 18:25:00,,0836.3,5.00,0.00,29.5,27.3,00.0,37.9,31.0,28.2,0003.0,0079.69,0059.75,0057.38
2023-05-20 18:26:00,,0836.3,4.99,0.00,29.5,27.5,00.0,37.9,31.1,27.7,0003.0,0079.80,0059.86,0057.46
2023-05-20 18:27:00,,0836.3,5.00,0.00,29.5,27.6,00.0,37.9,31.1,27.8,0002.9,0079.13,0059.89,0057.48
2023-05-20 18:28:00,,0836.2,5.00,0.00,29.5,27.7,00.0,37.9,31.1,27.8,0002.9,0078.61,0059.71,0057.35
2023-05-20 18:29:00,,0836.3,5.00,0.00,29.5,27.9,00.0,37.9,31.1,27.6,0002.9,0078.23,0059.54,0057.23
2023-05-20 18:30:00,,0836.3,5.00,0.00,29.5,27.9,00.0,37.9,31.1,27.5,0002.9,0077.86,0059.40,0057.14
2023-05-20 18:31:00,,0836.3,5.01,0.00,29.5,28.0,00.0,37.9,31.1,26.8,0002.9,0077.51,0059.29,0057.03
2023-05-20 18:32:00,,0836.3,5.01,0.00,29.5,28.0,00.0,37.9,31.1,27.0,0002.8,0077.31,0059.16,0056.89
2023-05-20 18:33:00,,0836.3,5.00,0.00,29.6,28.0,00.0,37.9,31.2,27.0,0002.8,0077.00,0058.99,0056.73
2023-05-20 18:34:00,,0836.3,5.00,0.00,29.6,28.1,00.0,37.9,31.2,26.8,0002.8,0076.96,0058.83,0056.57
2023-05-20 18:35:00,,0836.3,5.01,0.00,29.6,28.1,00.0,37.9,31.2,27.1,0002.8,0076.79,0058.69,0056.47
2023-05-20 18:36:00,,0836.3,4.99,0.00,29.6,28.1,00.0,37.9,31.2,27.3,0002.9,0076.58,0058.58,0056.37
2023-05-20 18:37:00,,0836.2,4.99,0.00,29.6,28.2,00.0,37.9,31.2,27.9,0002.9,0076.60,0058.48,0056.25
2023-05-20 18:38:00,,0836.3,5.01,0.00,29.6,28.2,00.0,37.9,31.2,27.7,0002.9,0076.38,0058.35,0056.16
2023-05-20 18:39:00,,0836.3,5.01,0.00,29.6,28.2,00.0,37.9,31.3,27.5,0002.9,0076.36,0058.39,0056.18
2023-05-20 18:40:00,,0836.3,5.00,0.00,29.6,28.2,00.0,37.9,31.2,27.7,0002.9,0076.65,0058.51,0056.24
2023-05-20 18:41:00,,0836.3,5.00,0.00,29.6,28.2,00.0,38.0,31.3,27.8,0003.0,0076.66,0058.49,0056.20
2023-05-20 18:42:00,,0836.4,4.99,0.00,29.7,28.2,00.0,38.0,31.3,27.0,0003.0,0076.94,0058.47,0056.13
2023-05-20 18:43:00,,0836.4,5.00,0.00,29.7,28.2,00.0,38.0,31.3,26.9,0003.0,0077.07,0058.48,0056.11
2023-05-20 18:44:00,,0836.4,5.00,0.00,29.7,28.3,00.0,38.0,31.3,26.3,0003.0,0077.00,0058.36,0055.97
2023-05-20 18:45:00,,0836.4,5.01,0.00,29.7,28.3,00.0,38.0,31.3,26.7,0003.0,0077.29,0058.30,0055.87
2023-05-20 18:46:00,,0836.4,4.99,0.00,29.7,28.3,00.0,38.0,31.3,26.5,0003.0,0077.45,0058.24,0055.76
2023-05-20 18:47:00,,0836.4,5.00,0.00,29.7,28.3,00.0,38.0,31.3,26.1,0002.9,0077.53,0058.09,0055.56
2023-05-20 18:48:00,,0836.4,5.01,0.00,29.7,28.3,00.0,38.0,31.3,27.1,0003.0,0077.04,0057.87,0055.41
2023-05-20 18:49:00,,0836.4,5.00,0.00,29.7,28.3,00.0,38.0,31.3,26.9,0003.0,0076.72,0057.65,0055.23
2023-05-20 18:50:00,,0836.3,4.98,0.00,29.7,27.4,00.0,38.0,31.2,27.4,0003.0,0076.92,0057.52,0055.05
2023-05-20 18:51:00,,0836.4,5.00,0.00,29.7,25.7,00.0,37.9,31.0,27.5,0002.9,0077.20,0057.42,0054.93
2023-05-20 18:52:00,,0836.4,5.01,0.00,29.6,25.0,00.0,37.8,30.8,26.9,0002.9,0077.05,0057.36,0054.90
2023-05-20 18:53:00,,0836.4,5.01,0.00,29.5,25.1,00.0,37.8,30.6,27.5,0002.9,0076.80,0057.25,0054.83
2023-05-20 18:54:00,,0836.3,4.99,0.00,29.3,25.4,00.0,37.8,30.6,27.1,0003.0,0076.61,0057.09,0054.70
2023-05-20 18:55:00,,0836.3,4.99,0.00,29.3,25.8,00.0,37.7,30.7,27.9,0003.0,0076.55,0057.00,0054.68
2023-05-20 18:56:00,,0836.3,5.01,0.00,29.3,26.2,00.0,37.7,30.7,27.4,0003.0,0076.58,0056.92,0054.67
2023-05-20 18:57:00,,0836.3,5.01,0.00,29.3,26.5,00.0,37.7,30.8,27.1,0003.0,0076.10,0056.81,0054.63
2023-05-20 18:58:00,,0836.4,5.00,0.00,29.3,26.8,00.0,37.7,30.8,27.3,0003.0,0076.38,0056.79,0054.65
2023-05-20 18:59:00,,0836.3,5.00,0.00,29.3,27.0,00.0,37.7,30.8,27.9,0003.0,0076.59,0056.93,0054.75
